Stations météo

réclame
Mon MeteoGroup
Drumalbin, Grande-Bretagne (3155): Température de l'air & dewpoint: 17.10.2018 07:00:00 - 23.10.2018 07:00:00 (BST)Drumalbin, Grande-Bretagne (3155): Température de l'air -20cm & Température de l'air -100cm: 17.10.2018 07:00:00 - 23.10.2018 07:00:00 (BST)Drumalbin, Grande-Bretagne (3155): Vitesse du vent & gusts: 17.10.2018 07:00:00 - 23.10.2018 07:00:00 (BST)Drumalbin, Grande-Bretagne (3155): Direction du vent: 17.10.2018 07:00:00 - 23.10.2018 07:00:00 (BST)Drumalbin, Grande-Bretagne (3155): reduced air pressure: 17.10.2018 07:00:00 - 23.10.2018 07:00:00 (BST)Drumalbin, Grande-Bretagne (3155): visibility: 17.10.2018 07:00:00 - 23.10.2018 07:00:00 (BST)Drumalbin, Grande-Bretagne (3155): Quantités de précipitations: 17.10.2018 07:00:00 - 23.10.2018 07:00:00 (BST)
Date & Time tt [°C] td [°C] tt -20cm [°C] tt -100cm [°C] ff [km/h] ff [knt] fx [km/h] fx [knt] dd ppp [hPa] vv [km] rr [mm]
23.10.2018 07:00:00 9,3 7,1 - - 41 22 68 37 W 1025,9 21 -
23.10.2018 06:00:00 9,4 6,9 - - 39 21 63 34 W 1026,6 24 0,0
23.10.2018 05:00:00 9,5 7,0 - - 42 23 68 37 W 1027,0 21 0,0
23.10.2018 04:00:00 9,5 7,3 - - 37 20 54 29 W 1027,3 20 0,0
23.10.2018 03:00:00 9,6 7,1 - - 44 24 59 32 W 1027,9 22 0,0
23.10.2018 02:00:00 9,6 7,1 - - 41 22 57 31 W 1028,2 22 0,0
23.10.2018 01:00:00 9,4 6,8 - - 42 23 61 33 WSW 1028,8 21 0,0
23.10.2018 00:00:00 9,3 6,6 - - 35 19 54 29 W 1030,2 22 0,0
22.10.2018 23:00:00 9,3 6,9 - - 35 19 52 28 W 1030,8 22 0,0
22.10.2018 22:00:00 9,3 7,1 - - 37 20 50 27 WSW 1031,3 22 0,0
22.10.2018 21:00:00 9,1 6,6 - - 39 21 61 33 W 1031,5 23 0,0
22.10.2018 20:00:00 9,1 6,8 - - 41 22 57 31 W 1031,6 22 0,0
22.10.2018 19:00:00 9,0 6,6 - - 29 16 55 30 WSW 1032,3 24 0,0
22.10.2018 18:00:00 9,1 6,9 - - 41 22 55 30 WSW 1032,7 29 0,0
22.10.2018 17:00:00 9,1 7,1 - - 31 17 61 33 WSW 1033,5 30 0,0
22.10.2018 16:00:00 8,5 7,4 - - 37 20 55 30 WSW 1033,6 23 0,0
22.10.2018 15:00:00 8,9 6,8 - - 34 18 50 27 W 1034,5 30 0,0
22.10.2018 14:00:00 9,4 5,8 - - 35 19 52 28 W 1035,0 40 0,0
22.10.2018 13:00:00 9,3 4,8 - - 31 17 46 25 W 1035,7 35 0,0
22.10.2018 12:00:00 8,8 5,3 - - 34 18 48 26 W 1036,0 30 0,0
22.10.2018 11:00:00 7,5 6,3 - - 22 12 - - W 1036,0 24 0,0
22.10.2018 10:00:00 7,2 5,3 10,4 10,7 22 12 - - WSW 1036,6 30 0,0
22.10.2018 09:00:00 6,2 4,6 - - 16 9 - - SW 1035,4 30 0,0
22.10.2018 08:00:00 6,2 4,3 - - 22 12 - - WSW 1035,5 35 0,0
22.10.2018 07:00:00 5,3 3,1 - - 13 7 - - SW 1035,2 30 0,0
22.10.2018 06:00:00 5,4 3,0 - - 18 10 - - WSW 1034,4 25 0,0
22.10.2018 05:00:00 5,3 2,6 - - 15 8 - - WSW 1034,1 23 0,0
22.10.2018 04:00:00 5,5 2,8 - - 15 8 - - WSW 1033,4 27 0,0
22.10.2018 03:00:00 5,7 3,0 - - 22 12 - - W 1032,9 30 0,0
22.10.2018 02:00:00 6,1 4,0 - - 21 11 - - WSW 1032,2 45 0,0
22.10.2018 01:00:00 6,1 4,4 - - 21 11 - - W 1032,2 35 0,0
22.10.2018 00:00:00 6,1 3,9 - - 24 13 - - W 1031,3 35 0,0
21.10.2018 23:00:00 6,3 4,5 - - 29 16 - - W 1030,8 35 0,0
21.10.2018 22:00:00 6,2 3,8 - - 28 15 - - W 1030,4 35 0,0
21.10.2018 21:00:00 6,1 3,5 - - 26 14 - - W 1030,0 30 0,0
21.10.2018 20:00:00 6,7 3,0 - - 24 13 - - W 1029,4 40 0,0
21.10.2018 19:00:00 7,2 2,9 - - 29 16 - - W 1028,5 35 0,0
21.10.2018 18:00:00 7,7 3,6 - - 35 19 61 33 WNW 1027,4 40 0,0
21.10.2018 17:00:00 9,4 5,2 - - 35 19 54 29 WNW 1026,2 40 0,0
21.10.2018 16:00:00 10,2 6,5 - - 35 19 52 28 W 1025,1 40 0,0
21.10.2018 15:00:00 9,6 8,7 - - 31 17 - - W 1024,7 30 0,0
21.10.2018 14:00:00 9,9 8,0 - - 35 19 50 27 WNW 1024,1 45 0,0
21.10.2018 13:00:00 9,7 8,1 - - 31 17 - - W 1024,1 50 0,0
21.10.2018 12:00:00 10,1 8,6 - - 29 16 46 25 W 1024,0 50 0,0
21.10.2018 11:00:00 10,2 9,1 - - 28 15 46 25 W 1023,1 50 0,2
21.10.2018 10:00:00 11,7 10,9 10,7 10,7 34 18 52 28 W 1021,6 6 0,6
21.10.2018 09:00:00 13,4 13,0 - - 28 15 46 25 SSW 1020,5 6 0,2
21.10.2018 08:00:00 13,8 12,7 - - 37 20 50 27 SSW 1020,4 50 0,0
21.10.2018 07:00:00 13,7 12,5 - - 31 17 - - SSW 1020,5 45 0,0
21.10.2018 06:00:00 13,5 12,8 - - 22 12 - - SSW 1021,0 45 0,0
21.10.2018 05:00:00 13,1 12,5 - - 28 15 - - SSW 1021,6 27 0,0
21.10.2018 04:00:00 13,2 12,4 - - 24 13 - - SSW 1022,2 50 0,0
21.10.2018 03:00:00 13,2 12,4 - - 28 15 - - SSW 1022,8 35 0,0
21.10.2018 02:00:00 13,1 12,3 - - 28 15 - - SSW 1023,3 35 0,0
21.10.2018 01:00:00 13,5 12,3 - - 28 15 - - SW 1023,9 50 0,0
21.10.2018 00:00:00 13,1 12,5 - - 29 16 - - SSW 1024,6 40 0,2
20.10.2018 23:00:00 12,8 12,3 - - 31 17 - - SW 1024,9 50 0,0
20.10.2018 22:00:00 12,4 11,9 - - 28 15 - - SSW 1025,2 35 0,0
20.10.2018 21:00:00 12,5 11,8 - - 31 17 - - SSW 1025,5 50 0,0
20.10.2018 20:00:00 13,0 12,0 - - 31 17 - - SW 1025,5 50 0,0
20.10.2018 19:00:00 12,6 11,8 - - 29 16 - - SSW 1025,3 50 0,0
20.10.2018 18:00:00 13,0 12,0 - - 28 15 - - SSW 1025,0 50 0,0
20.10.2018 17:00:00 13,1 12,2 - - 34 18 - - SSW 1024,6 50 0,0
20.10.2018 16:00:00 13,1 12,0 - - 22 12 - - SW 1024,8 50 0,0
20.10.2018 15:00:00 13,1 11,9 - - 18 10 - - SSW 1025,2 50 0,0
20.10.2018 14:00:00 13,7 11,8 - - 21 11 - - SW 1025,2 50 0,0
20.10.2018 13:00:00 12,9 11,7 - - 24 13 - - SW 1025,5 50 0,0
20.10.2018 12:00:00 12,0 12,0 - - 18 10 - - WSW 1026,2 30 0,4
20.10.2018 11:00:00 11,7 11,5 - - 26 14 - - SSW 1025,7 2,6 0,2
20.10.2018 10:00:00 11,5 11,1 10,0 10,7 35 19 54 29 SSW 1025,4 8 0,0
20.10.2018 09:00:00 11,4 10,9 - - 31 17 - - SSW 1024,5 21 0,0
20.10.2018 08:00:00 11,4 10,6 - - 22 12 - - SSW 1024,8 27 0,0
20.10.2018 07:00:00 11,4 10,7 - - 26 14 - - SSW 1024,8 28 0,0
20.10.2018 06:00:00 11,2 10,6 - - 26 14 - - SW 1024,8 35 0,0
20.10.2018 05:00:00 10,9 10,4 - - 28 15 - - SSW 1024,8 30 0,0
20.10.2018 04:00:00 10,6 10,2 - - 24 13 - - SSW 1025,3 17 0,0
20.10.2018 03:00:00 10,4 9,9 - - 18 10 - - SSW 1025,1 30 0,0
20.10.2018 02:00:00 9,9 9,4 - - 15 8 - - SSW 1025,6 27 0,0
20.10.2018 01:00:00 9,0 8,2 - - 18 10 - - SSW 1025,7 26 0,0
20.10.2018 00:00:00 8,2 7,5 - - 18 10 - - SSW 1025,9 45 0,0
19.10.2018 23:00:00 7,6 7,0 - - 15 8 - - SW 1025,7 40 0,0
19.10.2018 22:00:00 7,0 6,4 - - 9 5 - - SSW 1025,8 30 0,0
19.10.2018 21:00:00 7,8 7,1 - - 13 7 - - SSW 1025,5 28 0,0
19.10.2018 20:00:00 8,2 7,4 - - 13 7 - - SSW 1024,8 30 0,0
19.10.2018 19:00:00 8,5 7,6 - - 11 6 - - WSW 1024,2 30 0,0
19.10.2018 18:00:00 9,0 7,7 - - 13 7 - - W 1023,7 40 0,2
19.10.2018 17:00:00 9,9 9,5 - - 21 11 - - WSW 1023,1 22 0,0
19.10.2018 16:00:00 10,1 9,3 - - 21 11 - - W 1022,6 40 0,0
19.10.2018 15:00:00 10,0 9,3 - - 26 14 - - WSW 1022,2 21 0,0
19.10.2018 14:00:00 9,9 9,3 - - 24 13 - - SW 1021,6 16 0,0
19.10.2018 13:00:00 9,6 8,9 - - 28 15 - - SW 1021,6 6 0,0
19.10.2018 12:00:00 9,6 8,2 - - 31 17 52 28 SW 1021,4 7 0,0
19.10.2018 11:00:00 10,3 7,4 - - 37 20 50 27 SSW 1020,9 30 0,0
19.10.2018 10:00:00 8,2 6,1 10,2 10,9 24 13 - - SSW 1021,5 40 0,0
19.10.2018 09:00:00 7,1 5,8 - - 18 10 - - SSW 1021,6 30 0,0
19.10.2018 08:00:00 6,4 5,2 - - 24 13 - - SSW 1021,5 28 0,0
19.10.2018 07:00:00 6,0 4,9 - - 24 13 - - SSW 1021,6 30 0,0
19.10.2018 06:00:00 5,5 4,7 - - 22 12 - - S 1021,9 35 0,0
19.10.2018 05:00:00 5,9 4,7 - - 18 10 - - SSW 1023,0 40 0,0
19.10.2018 04:00:00 6,1 4,5 - - 18 10 - - SSW 1023,3 12 0,0
19.10.2018 03:00:00 6,0 4,4 - - 24 13 - - SSW 1024,0 45 0,0
19.10.2018 02:00:00 4,7 3,2 - - 8 4 - - S 1024,3 2,9 0,0
19.10.2018 01:00:00 4,7 3,1 - - 9 5 - - S 1024,9 4,4 0,0
19.10.2018 00:00:00 4,2 2,0 - - 13 7 - - S 1025,7 50 0,0
18.10.2018 23:00:00 5,0 2,8 - - 15 8 - - SSW 1026,2 50 0,0
18.10.2018 22:00:00 5,3 3,3 - - 15 8 - - SSW 1026,4 50 0,0
18.10.2018 21:00:00 6,0 4,0 - - 15 8 - - SSW 1026,7 45 0,0
18.10.2018 20:00:00 7,8 4,7 - - 18 10 - - S 1026,6 50 0,0
18.10.2018 19:00:00 8,0 5,1 - - 13 7 - - S 1026,7 40 0,0
18.10.2018 18:00:00 8,6 5,0 - - 11 6 - - SSW 1026,9 24 0,0
18.10.2018 17:00:00 9,1 5,5 - - 11 6 - - S 1027,0 28 0,0
18.10.2018 16:00:00 9,7 4,6 - - 9 5 - - SW 1027,3 50 0,0
18.10.2018 15:00:00 10,0 4,7 - - 5 3 - - W 1027,5 50 0,0
18.10.2018 14:00:00 10,0 4,6 - - 9 5 - - SSW 1027,9 2,9 0,0
18.10.2018 13:00:00 9,5 5,7 - - 9 5 - - WSW 1028,7 50 0,0
18.10.2018 12:00:00 9,2 6,4 - - 9 5 - - WSW 1029,0 2,9 0,0
18.10.2018 11:00:00 6,1 5,1 - - 2 1 - - NW 1029,6 11 0,0
18.10.2018 10:00:00 3,9 3,7 10,7 11,0 4 2 - - SSE 1029,4 28 0,0
18.10.2018 09:00:00 3,0 2,8 - - 2 1 - - ESE 1029,5 25 0,0
18.10.2018 08:00:00 2,1 1,7 - - 5 3 - - SSW 1029,2 11 0,0
18.10.2018 07:00:00 2,0 1,5 - - 5 3 - - SSW 1029,1 8 0,0
18.10.2018 06:00:00 1,4 0,5 - - 2 1 - - NNE 1028,8 18 0,0
18.10.2018 05:00:00 3,6 3,2 - - 9 5 - - SSW 1028,0 28 0,0
18.10.2018 04:00:00 4,4 3,8 - - 9 5 - - SSW 1027,9 30 0,0
18.10.2018 03:00:00 4,3 3,7 - - 9 5 - - SSW 1027,8 28 0,0
18.10.2018 02:00:00 4,7 3,9 - - 4 2 - - SW 1027,4 30 0,0
18.10.2018 01:00:00 4,0 3,2 - - 8 4 - - SW 1027,2 30 0,0
18.10.2018 00:00:00 4,4 3,5 - - 8 4 - - SSW 1027,0 30 0,0
17.10.2018 23:00:00 4,5 3,3 - - 4 2 - - SSW 1027,0 35 0,0
17.10.2018 22:00:00 4,9 2,8 - - 11 6 - - SW 1026,1 40 0,0
17.10.2018 21:00:00 5,8 3,9 - - 11 6 - - WSW 1025,3 45 0,0
17.10.2018 20:00:00 5,9 4,1 - - 9 5 - - WSW 1024,3 45 0,0
17.10.2018 19:00:00 7,0 4,4 - - 15 8 - - WSW 1023,3 50 0,0
17.10.2018 18:00:00 8,4 4,7 - - 16 9 - - W 1022,4 50 0,0
17.10.2018 17:00:00 9,3 5,6 - - 18 10 - - WNW 1021,3 50 0,0
17.10.2018 16:00:00 9,8 4,3 - - 18 10 - - WNW 1020,5 50 0,0
17.10.2018 15:00:00 10,3 5,3 - - 18 10 - - W 1020,0 50 0,0
17.10.2018 14:00:00 10,2 5,1 - - 22 12 - - W 1019,2 50 0,0
17.10.2018 13:00:00 10,1 5,0 - - 24 13 - - WNW 1018,5 50 0,0
17.10.2018 12:00:00 10,4 6,7 - - 21 11 - - W 1017,7 50 0,0
17.10.2018 11:00:00 9,5 8,5 - - 22 12 - - WNW 1016,9 40 0,0
17.10.2018 10:00:00 9,2 7,8 10,9 11,0 16 9 - - WSW 1016,1 35 0,0
17.10.2018 09:00:00 8,0 7,1 - - 16 9 - - SW 1015,3 35 0,0
17.10.2018 08:00:00 7,8 7,0 - - 21 11 - - SSW 1014,4 30 0,0
17.10.2018 07:00:00 7,1 6,3 - - 15 8 - - SSW 1013,6 27 0,0

tt = Température de l'air
td = dewpoint
tt -20cm = Température de l'air -20cm
tt -100cm = Température de l'air -100cm
ff = Vitesse du vent
fx = gusts
dd = Direction du vent
ppp = reduced air pressure
vv = visibility
rr = Quantités de précipitations

stations d'obs. à proximité